User: anonymous   Login
Location: ?ernice
(48.8383°N, 14.3803°E)
Time: 16:52:39
(UTC+00:00)
Language:

Cosmos 839 Rocket - Orbit

View from above orbital plane
View from above orbital plane
View from above satellite
View from above satellite

Ground track
Ground track

The orbit data is extracted from the following two-line orbital elements,

1  9013U 76067B   24202.56277235 -.00000006  00000-0  16240-3 0  9999
2  9013  65.8662  16.7660 0709002 139.1590 226.4822 12.35381623166621
Epoch (UTC): 20 July 2024 13:30:23
Eccentricity: 0.0709002
inclination: 65.8662°
perigee height: 966 km
apogee height: 2086 km
right ascension of ascending node: 16.7660°
argument of perigee: 139.1590°
revolutions per day: 12.35381623
mean anomaly at epoch: 226.4822°
orbit number at epoch: 16662

The dashed part of the orbit path shows where the satellite is in the earth's shadow,  

DLR